Year,Month,Day,Hour,Minute,Value (Times are PST for temperature in C)
2016,08,05,00,00,16.80
2016,08,05,00,01,16.70
2016,08,05,00,02,16.70
2016,08,05,00,03,16.70
2016,08,05,00,04,16.70
2016,08,05,00,05,16.70
2016,08,05,00,06,16.70
2016,08,05,00,07,16.70
2016,08,05,00,08,16.70
2016,08,05,00,09,16.70
2016,08,05,00,10,16.70
2016,08,05,00,11,16.70
2016,08,05,00,12,16.70
2016,08,05,00,13,16.70
2016,08,05,00,14,16.60
2016,08,05,00,15,16.60
2016,08,05,00,16,16.60
2016,08,05,00,17,16.60
2016,08,05,00,18,16.60
2016,08,05,00,19,16.60
2016,08,05,00,20,16.60
2016,08,05,00,21,16.60
2016,08,05,00,22,16.60
2016,08,05,00,23,16.60
2016,08,05,00,24,16.50
2016,08,05,00,25,16.50
2016,08,05,00,26,16.50
2016,08,05,00,27,16.50
2016,08,05,00,28,16.50
2016,08,05,00,29,16.50
2016,08,05,00,30,16.40
2016,08,05,00,31,16.40
2016,08,05,00,32,16.40
2016,08,05,00,33,16.40
2016,08,05,00,34,16.40
2016,08,05,00,35,16.40
2016,08,05,00,36,16.40
2016,08,05,00,37,16.40
2016,08,05,00,38,16.40
2016,08,05,00,39,16.40
2016,08,05,00,40,16.30
2016,08,05,00,41,16.30
2016,08,05,00,42,16.30
2016,08,05,00,43,16.30
2016,08,05,00,44,16.30
2016,08,05,00,45,16.30
2016,08,05,00,46,16.30
2016,08,05,00,47,16.30
2016,08,05,00,48,16.30
2016,08,05,00,49,16.30
2016,08,05,00,50,16.30
2016,08,05,00,51,16.30
2016,08,05,00,52,16.30
2016,08,05,00,53,16.30
2016,08,05,00,54,16.30
2016,08,05,00,55,16.30
2016,08,05,00,56,16.30
2016,08,05,00,57,16.30
2016,08,05,00,58,16.30
2016,08,05,00,59,16.30
2016,08,05,01,00,16.30
2016,08,05,01,01,16.30
2016,08,05,01,02,16.30
2016,08,05,01,03,16.30
2016,08,05,01,04,16.30
2016,08,05,01,05,16.30
2016,08,05,01,06,16.30
2016,08,05,01,07,16.30
2016,08,05,01,08,16.30
2016,08,05,01,09,16.30
2016,08,05,01,10,16.30
2016,08,05,01,11,16.30
2016,08,05,01,12,16.30
2016,08,05,01,13,16.20
2016,08,05,01,14,16.20
2016,08,05,01,15,16.20
2016,08,05,01,16,16.20
2016,08,05,01,17,16.20
2016,08,05,01,18,16.20
2016,08,05,01,19,16.20
2016,08,05,01,20,16.20
2016,08,05,01,21,16.20
2016,08,05,01,22,16.20
2016,08,05,01,23,16.10
2016,08,05,01,24,16.10
2016,08,05,01,25,16.10
2016,08,05,01,26,16.10
2016,08,05,01,27,16.10
2016,08,05,01,28,16.10
2016,08,05,01,29,16.10
2016,08,05,01,30,16.10
2016,08,05,01,31,16.10
2016,08,05,01,32,16.10
2016,08,05,01,33,16.10
2016,08,05,01,34,16.10
2016,08,05,01,35,16.00
2016,08,05,01,36,16.00
2016,08,05,01,37,16.00
2016,08,05,01,38,16.00
2016,08,05,01,39,16.00
2016,08,05,01,40,16.00
2016,08,05,01,41,16.00
2016,08,05,01,42,15.90
2016,08,05,01,43,15.90
2016,08,05,01,44,15.90
2016,08,05,01,45,15.90
2016,08,05,01,46,15.90
2016,08,05,01,47,15.90
2016,08,05,01,48,15.90
2016,08,05,01,49,15.90
2016,08,05,01,50,15.90
2016,08,05,01,51,15.90
2016,08,05,01,52,15.90
2016,08,05,01,53,15.90
2016,08,05,01,54,15.90
2016,08,05,01,55,15.90
2016,08,05,01,56,15.90
2016,08,05,01,57,15.90
2016,08,05,01,58,15.90
2016,08,05,01,59,15.90
2016,08,05,02,00,15.80
2016,08,05,02,01,15.80
2016,08,05,02,02,15.80
2016,08,05,02,03,15.80
2016,08,05,02,04,15.80
2016,08,05,02,05,15.80
2016,08,05,02,06,15.80
2016,08,05,02,07,15.80
2016,08,05,02,08,15.80
2016,08,05,02,09,15.80
2016,08,05,02,10,15.80
2016,08,05,02,11,15.80
2016,08,05,02,12,15.80
2016,08,05,02,13,15.70
2016,08,05,02,14,15.70
2016,08,05,02,15,15.70
2016,08,05,02,16,15.70
2016,08,05,02,17,15.70
2016,08,05,02,18,15.70
2016,08,05,02,19,15.70
2016,08,05,02,20,15.70
2016,08,05,02,21,15.70
2016,08,05,02,22,15.70
2016,08,05,02,23,15.70
2016,08,05,02,24,15.70
2016,08,05,02,25,15.60
2016,08,05,02,26,15.60
2016,08,05,02,27,15.60
2016,08,05,02,28,15.60
2016,08,05,02,29,15.60
2016,08,05,02,30,15.60
2016,08,05,02,31,15.60
2016,08,05,02,32,15.60
2016,08,05,02,33,15.50
2016,08,05,02,34,15.50
2016,08,05,02,35,15.50
2016,08,05,02,36,15.50
2016,08,05,02,37,15.40
2016,08,05,02,38,15.40
2016,08,05,02,39,15.40
2016,08,05,02,40,15.40
2016,08,05,02,41,15.40
2016,08,05,02,42,15.30
2016,08,05,02,43,15.30
2016,08,05,02,44,15.30
2016,08,05,02,45,15.30
2016,08,05,02,46,15.30
2016,08,05,02,47,15.30
2016,08,05,02,48,15.30
2016,08,05,02,49,15.30
2016,08,05,02,50,15.30
2016,08,05,02,51,15.30
2016,08,05,02,52,15.30
2016,08,05,02,53,15.30
2016,08,05,02,54,15.30
2016,08,05,02,55,15.30
2016,08,05,02,56,15.20
2016,08,05,02,57,15.30
2016,08,05,02,58,15.20
2016,08,05,02,59,15.20
2016,08,05,03,00,15.20
2016,08,05,03,01,15.20
2016,08,05,03,02,15.20
2016,08,05,03,03,15.20
2016,08,05,03,04,15.20
2016,08,05,03,05,15.20
2016,08,05,03,06,15.20
2016,08,05,03,07,15.20
2016,08,05,03,08,15.20
2016,08,05,03,09,15.10
2016,08,05,03,10,15.10
2016,08,05,03,11,15.10
2016,08,05,03,12,15.10
2016,08,05,03,13,15.10
2016,08,05,03,14,15.00
2016,08,05,03,15,15.00
2016,08,05,03,16,15.00
2016,08,05,03,17,14.90
2016,08,05,03,18,14.90
2016,08,05,03,19,14.90
2016,08,05,03,20,14.80
2016,08,05,03,21,14.80
2016,08,05,03,22,14.80
2016,08,05,03,23,14.80
2016,08,05,03,24,14.80
2016,08,05,03,25,14.70
2016,08,05,03,26,14.70
2016,08,05,03,27,14.70
2016,08,05,03,28,14.70
2016,08,05,03,29,14.60
2016,08,05,03,30,14.60
2016,08,05,03,31,14.60
2016,08,05,03,32,14.60
2016,08,05,03,33,14.60
2016,08,05,03,34,14.50
2016,08,05,03,35,14.50
2016,08,05,03,36,14.50
2016,08,05,03,37,14.40
2016,08,05,03,38,14.40
2016,08,05,03,39,14.40
2016,08,05,03,40,14.40
2016,08,05,03,41,14.30
2016,08,05,03,42,14.30
2016,08,05,03,43,14.30
2016,08,05,03,44,14.30
2016,08,05,03,45,14.30
2016,08,05,03,46,14.30
2016,08,05,03,47,14.20
2016,08,05,03,48,14.20
2016,08,05,03,49,14.20
2016,08,05,03,50,14.20
2016,08,05,03,51,14.20
2016,08,05,03,52,14.10
2016,08,05,03,53,14.10
2016,08,05,03,54,14.10
2016,08,05,03,55,14.10
2016,08,05,03,56,14.00
2016,08,05,03,57,14.00
2016,08,05,03,58,14.00
2016,08,05,03,59,13.90
2016,08,05,04,00,13.90
2016,08,05,04,01,13.90
2016,08,05,04,02,13.90
2016,08,05,04,03,13.90
2016,08,05,04,04,13.90
2016,08,05,04,05,13.90
2016,08,05,04,06,13.90
2016,08,05,04,07,13.90
2016,08,05,04,08,13.90
2016,08,05,04,09,13.90
2016,08,05,04,10,13.90
2016,08,05,04,11,13.90
2016,08,05,04,12,13.90
2016,08,05,04,13,13.90
2016,08,05,04,14,13.90
2016,08,05,04,15,13.80
2016,08,05,04,16,13.80
2016,08,05,04,17,13.80
2016,08,05,04,18,13.80
2016,08,05,04,19,13.80
2016,08,05,04,20,13.80
2016,08,05,04,21,13.80
2016,08,05,04,22,13.80
2016,08,05,04,23,13.70
2016,08,05,04,24,13.70
2016,08,05,04,25,13.70
2016,08,05,04,26,13.70
2016,08,05,04,27,13.70
2016,08,05,04,28,13.60
2016,08,05,04,29,13.60
2016,08,05,04,30,13.60
2016,08,05,04,31,13.60
2016,08,05,04,32,13.60
2016,08,05,04,33,13.60
2016,08,05,04,34,13.60
2016,08,05,04,35,13.60
2016,08,05,04,36,13.60
2016,08,05,04,37,13.60
2016,08,05,04,38,13.60
2016,08,05,04,39,13.60
2016,08,05,04,40,13.60
2016,08,05,04,41,13.60
2016,08,05,04,42,13.60
2016,08,05,04,43,13.60
2016,08,05,04,44,13.60
2016,08,05,04,45,13.60
2016,08,05,04,46,13.60
2016,08,05,04,47,13.60
2016,08,05,04,48,13.60
2016,08,05,04,49,13.60
2016,08,05,04,50,13.60
2016,08,05,04,51,13.60
2016,08,05,04,52,13.60
2016,08,05,04,53,13.60
2016,08,05,04,54,13.60
2016,08,05,04,55,13.60
2016,08,05,04,56,13.60
2016,08,05,04,57,13.60
2016,08,05,04,58,13.60
2016,08,05,04,59,13.60
2016,08,05,05,00,13.60
2016,08,05,05,01,13.50
2016,08,05,05,02,13.50
2016,08,05,05,03,13.50
2016,08,05,05,04,13.50
2016,08,05,05,05,13.50
2016,08,05,05,06,13.50
2016,08,05,05,07,13.50
2016,08,05,05,08,13.50
2016,08,05,05,09,13.50
2016,08,05,05,10,13.40
2016,08,05,05,11,13.40
2016,08,05,05,12,13.40
2016,08,05,05,13,13.40
2016,08,05,05,14,13.40
2016,08,05,05,15,13.40
2016,08,05,05,16,13.30
2016,08,05,05,17,13.30
2016,08,05,05,18,13.30
2016,08,05,05,19,13.30
2016,08,05,05,20,13.30
2016,08,05,05,21,13.30
2016,08,05,05,22,13.30
2016,08,05,05,23,13.30
2016,08,05,05,24,13.30
2016,08,05,05,25,13.30
2016,08,05,05,26,13.30
2016,08,05,05,27,13.20
2016,08,05,05,28,13.20
2016,08,05,05,29,13.20
2016,08,05,05,30,13.20
2016,08,05,05,31,13.20
2016,08,05,05,32,13.20
2016,08,05,05,33,13.20
2016,08,05,05,34,13.20
2016,08,05,05,35,13.20
2016,08,05,05,36,13.20
2016,08,05,05,37,13.10
2016,08,05,05,38,13.10
2016,08,05,05,39,13.10
2016,08,05,05,40,13.10
2016,08,05,05,41,13.10
2016,08,05,05,42,13.10
2016,08,05,05,43,13.00
2016,08,05,05,44,13.00
2016,08,05,05,45,13.00
2016,08,05,05,46,13.00
2016,08,05,05,47,13.00
2016,08,05,05,48,13.00
2016,08,05,05,49,13.00
2016,08,05,05,50,13.00
2016,08,05,05,51,13.00
2016,08,05,05,52,13.00
2016,08,05,05,53,12.90
2016,08,05,05,54,12.90
2016,08,05,05,55,12.90
2016,08,05,05,56,12.90
2016,08,05,05,57,12.90
2016,08,05,05,58,12.90
2016,08,05,05,59,12.90
2016,08,05,06,00,12.90
2016,08,05,06,01,12.90
2016,08,05,06,02,12.90
2016,08,05,06,03,12.90
2016,08,05,06,04,12.90
2016,08,05,06,05,12.90
2016,08,05,06,06,12.90
2016,08,05,06,07,12.90
2016,08,05,06,08,12.90
2016,08,05,06,09,12.90
2016,08,05,06,10,12.90
2016,08,05,06,11,12.90
2016,08,05,06,12,12.90
2016,08,05,06,13,12.90
2016,08,05,06,14,12.90
2016,08,05,06,15,13.00
2016,08,05,06,16,13.00
2016,08,05,06,17,13.00
2016,08,05,06,18,13.00
2016,08,05,06,19,13.00
2016,08,05,06,20,13.00
2016,08,05,06,21,13.00
2016,08,05,06,22,13.00
2016,08,05,06,23,13.10
2016,08,05,06,24,13.10
2016,08,05,06,25,13.10
2016,08,05,06,26,13.10
2016,08,05,06,27,13.10
2016,08,05,06,28,13.10
2016,08,05,06,29,13.10
2016,08,05,06,30,13.10
2016,08,05,06,31,13.00
2016,08,05,06,32,13.00
2016,08,05,06,33,13.00
2016,08,05,06,34,13.00
2016,08,05,06,35,13.00
2016,08,05,06,36,13.00
2016,08,05,06,37,13.00
2016,08,05,06,38,12.90
2016,08,05,06,39,12.90
2016,08,05,06,40,12.90
2016,08,05,06,41,12.90
2016,08,05,06,42,12.90
2016,08,05,06,43,12.90
2016,08,05,06,44,12.90
2016,08,05,06,45,12.90
2016,08,05,06,46,12.90
2016,08,05,06,47,12.90
2016,08,05,06,48,12.90
2016,08,05,06,49,12.90
2016,08,05,06,50,12.90
2016,08,05,06,51,12.90
2016,08,05,06,52,12.90
2016,08,05,06,53,13.00
2016,08,05,06,54,13.00
2016,08,05,06,55,13.00
2016,08,05,06,56,13.10
2016,08,05,06,57,13.10
2016,08,05,06,58,13.10
2016,08,05,06,59,13.20
2016,08,05,07,00,13.20
2016,08,05,07,01,13.20
2016,08,05,07,02,13.30
2016,08,05,07,03,13.30
2016,08,05,07,04,13.40
2016,08,05,07,05,13.40
2016,08,05,07,06,13.50
2016,08,05,07,07,13.60
2016,08,05,07,08,13.60
2016,08,05,07,09,13.70
2016,08,05,07,10,13.70
2016,08,05,07,11,13.80
2016,08,05,07,12,13.80
2016,08,05,07,13,13.90
2016,08,05,07,14,14.00
2016,08,05,07,15,14.10
2016,08,05,07,16,14.10
2016,08,05,07,17,14.20
2016,08,05,07,18,14.30
2016,08,05,07,19,14.40
2016,08,05,07,20,14.50
2016,08,05,07,21,14.60
2016,08,05,07,22,14.70
2016,08,05,07,23,14.80
2016,08,05,07,24,14.90
2016,08,05,07,25,14.90
2016,08,05,07,26,15.00
2016,08,05,07,27,15.10
2016,08,05,07,28,15.20
2016,08,05,07,29,15.20
2016,08,05,07,30,15.20
2016,08,05,07,31,15.30
2016,08,05,07,32,15.40
2016,08,05,07,33,15.40
2016,08,05,07,34,15.50
2016,08,05,07,35,15.60
2016,08,05,07,36,15.60
2016,08,05,07,37,15.70
2016,08,05,07,38,15.70
2016,08,05,07,39,15.80
2016,08,05,07,40,15.80
2016,08,05,07,41,15.90
2016,08,05,07,42,16.00
2016,08,05,07,43,16.10
2016,08,05,07,44,16.20
2016,08,05,07,45,16.30
2016,08,05,07,46,16.40
2016,08,05,07,47,16.50
2016,08,05,07,48,16.60
2016,08,05,07,49,16.60
2016,08,05,07,50,16.70
2016,08,05,07,51,16.70
2016,08,05,07,52,16.60
2016,08,05,07,53,16.50
2016,08,05,07,54,16.50
2016,08,05,07,55,16.40
2016,08,05,07,56,16.30
2016,08,05,07,57,16.20
2016,08,05,07,58,16.10
2016,08,05,07,59,16.00
2016,08,05,08,00,15.90
2016,08,05,08,01,15.80
2016,08,05,08,02,15.70
2016,08,05,08,03,15.70
2016,08,05,08,04,15.60
2016,08,05,08,05,15.50
2016,08,05,08,06,15.50
2016,08,05,08,07,15.40
2016,08,05,08,08,15.40
2016,08,05,08,09,15.30
2016,08,05,08,10,15.20
2016,08,05,08,11,15.20
2016,08,05,08,12,15.10
2016,08,05,08,13,15.10
2016,08,05,08,14,15.00
2016,08,05,08,15,15.00
2016,08,05,08,16,14.90
2016,08,05,08,17,14.90
2016,08,05,08,18,14.90
2016,08,05,08,19,14.90
2016,08,05,08,20,14.90
2016,08,05,08,21,14.90
2016,08,05,08,22,15.00
2016,08,05,08,23,15.10
2016,08,05,08,24,15.20
2016,08,05,08,25,15.30
2016,08,05,08,26,15.50
2016,08,05,08,27,15.60
2016,08,05,08,28,15.70
2016,08,05,08,29,15.90
2016,08,05,08,30,16.00
2016,08,05,08,31,16.20
2016,08,05,08,32,16.30
2016,08,05,08,33,16.40
2016,08,05,08,34,16.60
2016,08,05,08,35,16.70
2016,08,05,08,36,16.70
2016,08,05,08,37,16.70
2016,08,05,08,38,16.70
2016,08,05,08,39,16.70
2016,08,05,08,40,16.60
2016,08,05,08,41,16.60
2016,08,05,08,42,16.40
2016,08,05,08,43,16.40
2016,08,05,08,44,16.30
2016,08,05,08,45,16.30
2016,08,05,08,46,16.20
2016,08,05,08,47,16.10
2016,08,05,08,48,16.10
2016,08,05,08,49,16.10
2016,08,05,08,50,16.00
2016,08,05,08,51,16.00
2016,08,05,08,52,15.90
2016,08,05,08,53,15.90
2016,08,05,08,54,15.90
2016,08,05,08,55,15.90
2016,08,05,08,56,15.90
2016,08,05,08,57,15.90
2016,08,05,08,58,15.90
2016,08,05,08,59,15.90
2016,08,05,09,00,15.90
2016,08,05,09,01,15.90
2016,08,05,09,02,15.90
2016,08,05,09,03,16.00
2016,08,05,09,04,16.00
2016,08,05,09,05,16.10
2016,08,05,09,06,16.10
2016,08,05,09,07,16.20
2016,08,05,09,08,16.20
2016,08,05,09,09,16.20
2016,08,05,09,10,16.20
2016,08,05,09,11,16.20
2016,08,05,09,12,16.20
2016,08,05,09,13,16.20
2016,08,05,09,14,16.20
2016,08,05,09,15,16.20
2016,08,05,09,16,16.20
2016,08,05,09,17,16.20
2016,08,05,09,18,16.20
2016,08,05,09,19,16.20
2016,08,05,09,20,16.30
2016,08,05,09,21,16.30
2016,08,05,09,22,16.30
2016,08,05,09,23,16.30
2016,08,05,09,24,16.30
2016,08,05,09,25,16.30
2016,08,05,09,26,16.30
2016,08,05,09,27,16.30
2016,08,05,09,28,16.30
2016,08,05,09,29,16.40
2016,08,05,09,30,16.40
2016,08,05,09,31,16.40
2016,08,05,09,32,16.40
2016,08,05,09,33,16.40
2016,08,05,09,34,16.40
2016,08,05,09,35,16.40
2016,08,05,09,36,16.30
2016,08,05,09,37,16.30
2016,08,05,09,38,16.30
2016,08,05,09,39,16.30
2016,08,05,09,40,16.30
2016,08,05,09,41,16.30
2016,08,05,09,42,16.30
2016,08,05,09,43,16.30
2016,08,05,09,44,16.30
2016,08,05,09,45,16.30
2016,08,05,09,46,16.40
2016,08,05,09,47,16.40
2016,08,05,09,48,16.40
2016,08,05,09,49,16.40
2016,08,05,09,50,16.40
2016,08,05,09,51,16.40
2016,08,05,09,52,16.40
2016,08,05,09,53,16.40
2016,08,05,09,54,16.40
2016,08,05,09,55,16.50
2016,08,05,09,56,16.50
2016,08,05,09,57,16.40
2016,08,05,09,58,16.50
2016,08,05,09,59,16.50
2016,08,05,10,00,16.60
2016,08,05,10,01,16.70
2016,08,05,10,02,16.80
2016,08,05,10,03,16.90
2016,08,05,10,04,17.10
2016,08,05,10,05,17.20
2016,08,05,10,06,17.30
2016,08,05,10,07,17.40
2016,08,05,10,08,17.40
2016,08,05,10,09,17.40
2016,08,05,10,10,17.40
2016,08,05,10,11,17.50
2016,08,05,10,12,17.50
2016,08,05,10,13,17.50
2016,08,05,10,14,17.40
2016,08,05,10,15,17.40
2016,08,05,10,16,17.40
2016,08,05,10,17,17.50
2016,08,05,10,18,17.50
2016,08,05,10,19,17.50
2016,08,05,10,20,17.50
2016,08,05,10,21,17.50
2016,08,05,10,22,17.50
2016,08,05,10,23,17.50
2016,08,05,10,24,17.40
2016,08,05,10,25,17.30
2016,08,05,10,26,17.30
2016,08,05,10,27,17.30
2016,08,05,10,28,17.30
2016,08,05,10,29,17.30
2016,08,05,10,30,17.20
2016,08,05,10,31,17.20
2016,08,05,10,32,17.20
2016,08,05,10,33,17.20
2016,08,05,10,34,17.20
2016,08,05,10,35,17.20
2016,08,05,10,36,17.20
2016,08,05,10,37,17.20
2016,08,05,10,38,17.20
2016,08,05,10,39,17.30
2016,08,05,10,40,17.30
2016,08,05,10,41,17.30
2016,08,05,10,42,17.40
2016,08,05,10,43,17.40
2016,08,05,10,44,17.40
2016,08,05,10,45,17.40
2016,08,05,10,46,17.40
2016,08,05,10,47,17.30
2016,08,05,10,48,17.30
2016,08,05,10,49,17.40
2016,08,05,10,50,17.40
2016,08,05,10,51,17.50
2016,08,05,10,52,17.60
2016,08,05,10,53,17.70
2016,08,05,10,54,17.80
2016,08,05,10,55,17.80
2016,08,05,10,56,17.90
2016,08,05,10,57,17.90
2016,08,05,10,58,18.00
2016,08,05,10,59,18.00
2016,08,05,11,00,18.10
2016,08,05,11,01,18.20
2016,08,05,11,02,18.30
2016,08,05,11,03,18.30
2016,08,05,11,04,18.30
2016,08,05,11,05,18.30
2016,08,05,11,06,18.30
2016,08,05,11,07,18.30
2016,08,05,11,08,18.20
2016,08,05,11,09,18.20
2016,08,05,11,10,18.30
2016,08,05,11,11,18.30
2016,08,05,11,12,18.30
2016,08,05,11,13,18.40
2016,08,05,11,14,18.50
2016,08,05,11,15,18.60
2016,08,05,11,16,18.60
2016,08,05,11,17,18.70
2016,08,05,11,18,18.70
2016,08,05,11,19,18.70
2016,08,05,11,20,18.60
2016,08,05,11,21,18.50
2016,08,05,11,22,18.50
2016,08,05,11,23,18.40
2016,08,05,11,24,18.30
2016,08,05,11,25,18.20
2016,08,05,11,26,18.10
2016,08,05,11,27,18.10
2016,08,05,11,28,18.20
2016,08,05,11,29,18.30
2016,08,05,11,30,18.40
2016,08,05,11,31,18.50
2016,08,05,11,32,18.60
2016,08,05,11,33,18.70
2016,08,05,11,34,18.70
2016,08,05,11,35,18.70
2016,08,05,11,36,18.60
2016,08,05,11,37,18.70
2016,08,05,11,38,18.70
2016,08,05,11,39,18.80
2016,08,05,11,40,18.80
2016,08,05,11,41,18.80
2016,08,05,11,42,18.70
2016,08,05,11,43,18.60
2016,08,05,11,44,18.70
2016,08,05,11,45,18.70
2016,08,05,11,46,18.70
2016,08,05,11,47,18.70
2016,08,05,11,48,18.60
2016,08,05,11,49,18.60
2016,08,05,11,50,18.60
2016,08,05,11,51,18.50
2016,08,05,11,52,18.50
2016,08,05,11,53,18.30
2016,08,05,11,54,18.20
2016,08,05,11,55,18.10
2016,08,05,11,56,18.00
2016,08,05,11,57,18.00
2016,08,05,11,58,18.00
2016,08,05,11,59,18.10
2016,08,05,12,00,18.10
2016,08,05,12,01,18.20
2016,08,05,12,02,18.20
2016,08,05,12,03,18.20
2016,08,05,12,04,18.10
2016,08,05,12,05,18.00
2016,08,05,12,06,18.00
2016,08,05,12,07,17.90
2016,08,05,12,08,17.80
2016,08,05,12,09,17.80
2016,08,05,12,10,17.80
2016,08,05,12,11,17.90
2016,08,05,12,12,18.00
2016,08,05,12,13,18.10
2016,08,05,12,14,18.20
2016,08,05,12,15,18.20
2016,08,05,12,16,18.20
2016,08,05,12,17,18.10
2016,08,05,12,18,18.00
2016,08,05,12,19,18.00
2016,08,05,12,20,18.00
2016,08,05,12,21,17.90
2016,08,05,12,22,18.00
2016,08,05,12,23,17.90
2016,08,05,12,24,18.00
2016,08,05,12,25,18.00
2016,08,05,12,26,18.00
2016,08,05,12,27,18.10
2016,08,05,12,28,18.00
2016,08,05,12,29,17.90
2016,08,05,12,30,17.80
2016,08,05,12,31,17.70
2016,08,05,12,32,17.70
2016,08,05,12,33,17.70
2016,08,05,12,34,17.60
2016,08,05,12,35,17.60
2016,08,05,12,36,17.60
2016,08,05,12,37,17.50
2016,08,05,12,38,17.50
2016,08,05,12,39,17.40
2016,08,05,12,40,17.30
2016,08,05,12,41,17.30
2016,08,05,12,42,17.30
2016,08,05,12,43,17.30
2016,08,05,12,44,17.20
2016,08,05,12,45,17.20
2016,08,05,12,46,17.20
2016,08,05,12,47,17.20
2016,08,05,12,48,17.20
2016,08,05,12,49,17.20
2016,08,05,12,50,17.20
2016,08,05,12,51,17.10
2016,08,05,12,52,17.10
2016,08,05,12,53,17.20
2016,08,05,12,54,17.20
2016,08,05,12,55,17.20
2016,08,05,12,56,17.10
2016,08,05,12,57,17.10
2016,08,05,12,58,17.10
2016,08,05,12,59,17.00
2016,08,05,13,00,17.00
2016,08,05,13,01,16.90
2016,08,05,13,02,16.80
2016,08,05,13,03,16.80
2016,08,05,13,04,16.80
2016,08,05,13,05,16.80
2016,08,05,13,06,16.80
2016,08,05,13,07,16.80
2016,08,05,13,08,16.80
2016,08,05,13,09,16.80
2016,08,05,13,10,16.80
2016,08,05,13,11,16.80
2016,08,05,13,12,16.80
2016,08,05,13,13,16.80
2016,08,05,13,14,16.80
2016,08,05,13,15,16.80
2016,08,05,13,16,16.70
2016,08,05,13,17,16.70
2016,08,05,13,18,16.70
2016,08,05,13,19,16.70
2016,08,05,13,20,16.70
2016,08,05,13,21,16.70
2016,08,05,13,22,16.70
2016,08,05,13,23,16.70
2016,08,05,13,24,16.70
2016,08,05,13,25,16.70
2016,08,05,13,26,16.70
2016,08,05,13,27,16.80
2016,08,05,13,28,16.80
2016,08,05,13,29,16.80
2016,08,05,13,30,16.80
2016,08,05,13,31,16.80
2016,08,05,13,32,16.80
2016,08,05,13,33,16.80
2016,08,05,13,34,16.80
2016,08,05,13,35,16.80
2016,08,05,13,36,16.80
2016,08,05,13,37,16.80
2016,08,05,13,38,16.80
2016,08,05,13,39,16.70
2016,08,05,13,40,16.70
2016,08,05,13,41,16.70
2016,08,05,13,42,16.70
2016,08,05,13,43,16.70
2016,08,05,13,44,16.80
2016,08,05,13,45,16.80
2016,08,05,13,46,16.80
2016,08,05,13,47,16.80
2016,08,05,13,48,16.80
2016,08,05,13,49,16.80
2016,08,05,13,50,16.80
2016,08,05,13,51,16.80
2016,08,05,13,52,16.90
2016,08,05,13,53,16.90
2016,08,05,13,54,16.90
2016,08,05,13,55,16.90
2016,08,05,13,56,16.90
2016,08,05,13,57,16.90
2016,08,05,13,58,16.90
2016,08,05,13,59,16.90
2016,08,05,14,00,16.90
2016,08,05,14,01,16.80
2016,08,05,14,02,16.80
2016,08,05,14,03,16.90
2016,08,05,14,04,16.90
2016,08,05,14,05,16.90
2016,08,05,14,06,16.90
2016,08,05,14,07,16.90
2016,08,05,14,08,16.90
2016,08,05,14,09,16.90
2016,08,05,14,10,16.90
2016,08,05,14,11,17.00
2016,08,05,14,12,17.00
2016,08,05,14,13,17.10
2016,08,05,14,14,17.10
2016,08,05,14,15,17.10
2016,08,05,14,16,17.20
2016,08,05,14,17,17.20
2016,08,05,14,18,17.20
2016,08,05,14,19,17.20
2016,08,05,14,20,17.20
2016,08,05,14,21,17.20
2016,08,05,14,22,17.20
2016,08,05,14,23,17.20
2016,08,05,14,24,17.30
2016,08,05,14,25,17.30
2016,08,05,14,26,17.30
2016,08,05,14,27,17.30
2016,08,05,14,28,17.30
2016,08,05,14,29,17.20
2016,08,05,14,30,17.20
2016,08,05,14,31,17.20
2016,08,05,14,32,17.20
2016,08,05,14,33,17.10
2016,08,05,14,34,17.00
2016,08,05,14,35,17.00
2016,08,05,14,36,16.90
2016,08,05,14,37,16.90
2016,08,05,14,38,16.90
2016,08,05,14,39,16.90
2016,08,05,14,40,16.90
2016,08,05,14,41,16.80
2016,08,05,14,42,16.80
2016,08,05,14,43,16.80
2016,08,05,14,44,16.70
2016,08,05,14,45,16.70
2016,08,05,14,46,16.60
2016,08,05,14,47,16.60
2016,08,05,14,48,16.50
2016,08,05,14,49,16.50
2016,08,05,14,50,16.50
2016,08,05,14,51,16.40
2016,08,05,14,52,16.40
2016,08,05,14,53,16.30
2016,08,05,14,54,16.30
2016,08,05,14,55,16.20
2016,08,05,14,56,16.20
2016,08,05,14,57,16.20
2016,08,05,14,58,16.10
2016,08,05,14,59,16.10
2016,08,05,15,00,16.00
2016,08,05,15,01,16.00
2016,08,05,15,02,15.90
2016,08,05,15,03,15.80
2016,08,05,15,04,15.80
2016,08,05,15,05,15.70
2016,08,05,15,06,15.70
2016,08,05,15,07,15.70
2016,08,05,15,08,15.70
2016,08,05,15,09,15.60
2016,08,05,15,10,15.60
2016,08,05,15,11,15.60
2016,08,05,15,12,15.50
2016,08,05,15,13,15.50
2016,08,05,15,14,15.50
2016,08,05,15,15,15.50
2016,08,05,15,16,15.50
2016,08,05,15,17,15.50
2016,08,05,15,18,15.60
2016,08,05,15,19,15.60
2016,08,05,15,20,15.60
2016,08,05,15,21,15.60
2016,08,05,15,22,15.50
2016,08,05,15,23,15.50
2016,08,05,15,24,15.50
2016,08,05,15,25,15.50
2016,08,05,15,26,15.50
2016,08,05,15,27,15.60
2016,08,05,15,28,15.60
2016,08,05,15,29,15.60
2016,08,05,15,30,15.60
2016,08,05,15,31,15.60
2016,08,05,15,32,15.60
2016,08,05,15,33,15.70
2016,08,05,15,34,15.70
2016,08,05,15,35,15.70
2016,08,05,15,36,15.70
2016,08,05,15,37,15.70
2016,08,05,15,38,15.70
2016,08,05,15,39,15.70
2016,08,05,15,40,15.70
2016,08,05,15,41,15.70
2016,08,05,15,42,15.70
2016,08,05,15,43,15.80
2016,08,05,15,44,15.80
2016,08,05,15,45,15.70
2016,08,05,15,46,15.70
2016,08,05,15,47,15.80
2016,08,05,15,48,15.80
2016,08,05,15,49,15.80
2016,08,05,15,50,15.80
2016,08,05,15,51,15.90
2016,08,05,15,52,16.00
2016,08,05,15,53,16.10
2016,08,05,15,54,16.10
2016,08,05,15,55,16.20
2016,08,05,15,56,16.20
2016,08,05,15,57,16.20
2016,08,05,15,58,16.30
2016,08,05,15,59,16.20
2016,08,05,16,00,16.20
2016,08,05,16,01,16.20
2016,08,05,16,02,16.20
2016,08,05,16,03,16.30
2016,08,05,16,04,16.30
2016,08,05,16,05,16.30
2016,08,05,16,06,16.30
2016,08,05,16,07,16.40
2016,08,05,16,08,16.40
2016,08,05,16,09,16.50
2016,08,05,16,10,16.50
2016,08,05,16,11,16.50
2016,08,05,16,12,16.50
2016,08,05,16,13,16.50
2016,08,05,16,14,16.60
2016,08,05,16,15,16.60
2016,08,05,16,16,16.70
2016,08,05,16,17,16.90
2016,08,05,16,18,17.00
2016,08,05,16,19,17.00
2016,08,05,16,20,17.10
2016,08,05,16,21,17.10
2016,08,05,16,22,17.10
2016,08,05,16,23,17.10
2016,08,05,16,24,17.10
2016,08,05,16,25,17.10
2016,08,05,16,26,17.10
2016,08,05,16,27,17.10
2016,08,05,16,28,17.10
2016,08,05,16,29,17.10
2016,08,05,16,30,17.20
2016,08,05,16,31,17.20
2016,08,05,16,32,17.20
2016,08,05,16,33,17.20
2016,08,05,16,34,17.20
2016,08,05,16,35,17.20
2016,08,05,16,36,17.20
2016,08,05,16,37,17.20
2016,08,05,16,38,17.30
2016,08,05,16,39,17.40
2016,08,05,16,40,17.50
2016,08,05,16,41,17.60
2016,08,05,16,42,17.70
2016,08,05,16,43,17.80
2016,08,05,16,44,17.90
2016,08,05,16,45,18.00
2016,08,05,16,46,18.20
2016,08,05,16,47,18.30
2016,08,05,16,48,18.40
2016,08,05,16,49,18.50
2016,08,05,16,50,18.70
2016,08,05,16,51,18.80
2016,08,05,16,52,19.00
2016,08,05,16,53,19.10
2016,08,05,16,54,19.10
2016,08,05,16,55,19.20
2016,08,05,16,56,19.20
2016,08,05,16,57,19.20
2016,08,05,16,58,19.20
2016,08,05,16,59,19.20
2016,08,05,17,00,19.30
2016,08,05,17,01,19.40
2016,08,05,17,02,19.50
2016,08,05,17,03,19.50
2016,08,05,17,04,19.60
2016,08,05,17,05,19.70
2016,08,05,17,06,19.70
2016,08,05,17,07,19.70
2016,08,05,17,08,19.70
2016,08,05,17,09,19.70
2016,08,05,17,10,19.70
2016,08,05,17,11,19.60
2016,08,05,17,12,19.60
2016,08,05,17,13,19.60
2016,08,05,17,14,19.60
2016,08,05,17,15,19.50
2016,08,05,17,16,19.50
2016,08,05,17,17,19.50
2016,08,05,17,18,19.50
2016,08,05,17,19,19.50